Regional Weather Roundup
Issued by NWS Albany, NY

Home | Current Version | Previous Version | Text Only | Print | Product List | Glossary On
Versions: 1 2 3 4 5 6 7 8 9 10 11 12 13 14 15 16 17 18 19 20 21 22 23 24 25 26 27
000
ASUS41 KALY 180310
RWRALY

NEW YORK STATE HOURLY WEATHER ROUNDUP
NATIONAL WEATHER SERVICE ALBANY NY
1100 PM EDT THU APR 17 2014

NOTE: "FAIR" INDICATES FEW OR NO CLOUDS BELOW 12,000 FEET WITH NO
SIGNIFICANT WEATHER AND/OR NO OBSTRUCTIONS TO VISIBILITY.

NYZ032-033-038>043-046>054-057>066-NYZ062>081-180400-
EAST


CITY           SKY/WX    TMP DP  RH WIND       PRES   REMARKS
ALBANY         PTCLDY    42  21  43 SE8       30.60S
GLENS FALLS    CLEAR    N/A N/A N/A S5        30.60R
POUGHKEEPSIE   CLEAR     40  27  59 S3        30.62S
NEWBURGH       CLEAR     41  27  56 VRB6      30.62S
MONTGOMERY     CLEAR     38  24  57 SE3       30.60S
WHITE PLAINS   CLEAR     37  29  72 CALM      30.59F
ISLIP          PTCLDY    36  27  69 E5        30.60F WCI  32
NEW YORK CITY  PTCLDY    40  28  62 E9        30.61F WCI  34
CENTRAL PARK   CLEAR     41  29  62 VRB7      30.63F
$$

NYZ005>009-017-018-044>046-055-056-180400-
CENTRAL


CITY           SKY/WX    TMP DP  RH WIND       PRES   REMARKS
FULTON         PTCLDY    44  24  45 SE8       30.46F
SYRACUSE       PTCLDY    44  22  41 E10       30.48S
ROME           CLEAR     39  21  48 SE8       30.53S WCI  33
ELMIRA         CLEAR     44  25  47 CALM      30.48S
BINGHAMTON     CLEAR     40  22  48 S9G17     30.48F WCI  34
MONTICELLO     CLEAR     34  21  60 SE3       30.56F
$$

NYZ026>034-041>043-180400-
NORTH


CITY           SKY/WX    TMP DP  RH WIND       PRES   REMARKS
WATERTOWN      PTCLDY    42  20  41 SE7       30.45F
FORT DRUM      NOT AVBL
MASSENA        PTCLDY    40  19  43 S8        30.51F WCI  34
SARANAC LAKE   CLEAR     27  19  72 CALM      30.47F
PLATTSBURGH    CLEAR     35  25  66 S5        30.56F WCI  31
$$

NYZ001>004-010>016-019>021-180400-
WEST


CITY           SKY/WX    TMP DP  RH WIND       PRES   REMARKS
NIAGARA FALLS  MOCLDY    49  27  42 S8        30.34F
BUFFALO        CLOUDY    52  25  35 S14       30.35F
DUNKIRK        CLEAR     51  25  36 S18G26    30.34F
JAMESTOWN      CLEAR     43  25  49 S9        30.37S
WELLSVILLE     CLEAR     42  21  43 S9        30.42F
ROCHESTER      PTCLDY    49  25  39 S8        30.40F
PENN YAN       CLEAR     44  27  51 S9        30.44F
$$

             KEY
       WCI = WIND CHILL INDEX
       VSB = VISIBILITY
       HX  = HEAT INDEX
$$



USA.gov is the U.S. government's official web portal to all federal, state and local government web resources and services.